Location: Aldenham
(51.6667°N, 0.3500°W)
Time: 20:53:15
(UTC+00:00)

Vanguard 2 Rocket - Pass Details

Date: 16 February 2026
Orbit: 553 x 3287 km, 32.9° (Epoch: 6 March)

Event Time Altitude Azimuth Distance (km) Brightness Sun altitude
Rises 15:47:32 0° 253° (WSW) 6,620 12.8 11.5°
Reaches altitude 10° 15:53:17 10° 244° (WSW) 5,181 13.2 10.8°
Maximum altitude 16:03:57 27° 195° (SSW) 3,011 10.4 9.4°
Drops below altitude 10° 16:11:05 10° 141° (SE) 3,362 9.8 8.5°
Sets 16:13:55 0° 129° (SE) 3,999 10.0 8.1°
